Location: St. Louis
(38.6270°N, 90.1994°W)
Time: 20:30:42
(UTC-05:00)

deb Delta - Pass Details

Date: 04 July 2022
Orbit: 1084 x 1202 km, 99.8° (Epoch: 13 August)

Event Time Altitude Azimuth Distance (km) Brightness Sun altitude
Exits shadow 00:40:38 18° 102° (ESE) 2,571 ? -28.2°
Maximum altitude 00:44:16 27° 62° (ENE) 2,116 ? -28.3°
Drops below altitude 10° 00:50:01 10° 8° (N) 3,124 ? -28.4°
Sets 00:53:01 0° 357° (N) 4,078 ? -28.4°
